Year,Month,Day,Hour,Minute,Value (Times are PST for temperature in C)
2018,04,25,00,00,11.70
2018,04,25,00,01,11.70
2018,04,25,00,02,11.70
2018,04,25,00,03,11.70
2018,04,25,00,04,11.70
2018,04,25,00,05,11.70
2018,04,25,00,06,11.70
2018,04,25,00,07,11.70
2018,04,25,00,08,11.70
2018,04,25,00,09,11.70
2018,04,25,00,10,11.70
2018,04,25,00,11,11.70
2018,04,25,00,12,11.70
2018,04,25,00,13,11.60
2018,04,25,00,14,11.60
2018,04,25,00,15,11.60
2018,04,25,00,16,11.60
2018,04,25,00,17,11.60
2018,04,25,00,18,11.60
2018,04,25,00,19,11.60
2018,04,25,00,20,11.60
2018,04,25,00,21,11.60
2018,04,25,00,22,11.50
2018,04,25,00,23,11.50
2018,04,25,00,24,11.50
2018,04,25,00,25,11.50
2018,04,25,00,26,11.50
2018,04,25,00,27,11.50
2018,04,25,00,28,11.50
2018,04,25,00,29,11.50
2018,04,25,00,30,11.50
2018,04,25,00,31,11.40
2018,04,25,00,32,11.40
2018,04,25,00,33,11.40
2018,04,25,00,34,11.40
2018,04,25,00,35,11.40
2018,04,25,00,36,11.40
2018,04,25,00,37,11.40
2018,04,25,00,38,11.40
2018,04,25,00,39,11.40
2018,04,25,00,40,11.30
2018,04,25,00,41,11.30
2018,04,25,00,42,11.30
2018,04,25,00,43,11.30
2018,04,25,00,44,11.20
2018,04,25,00,45,11.20
2018,04,25,00,46,11.20
2018,04,25,00,47,11.10
2018,04,25,00,48,11.10
2018,04,25,00,49,11.10
2018,04,25,00,50,11.00
2018,04,25,00,51,11.00
2018,04,25,00,52,10.90
2018,04,25,00,53,10.90
2018,04,25,00,54,10.90
2018,04,25,00,55,10.80
2018,04,25,00,56,10.80
2018,04,25,00,57,10.70
2018,04,25,00,58,10.70
2018,04,25,00,59,10.60
2018,04,25,01,00,10.60
2018,04,25,01,01,10.60
2018,04,25,01,02,10.60
2018,04,25,01,03,10.50
2018,04,25,01,04,10.50
2018,04,25,01,05,10.50
2018,04,25,01,06,10.50
2018,04,25,01,07,10.50
2018,04,25,01,08,10.50
2018,04,25,01,09,10.60
2018,04,25,01,10,10.50
2018,04,25,01,11,10.50
2018,04,25,01,12,10.50
2018,04,25,01,13,10.50
2018,04,25,01,14,10.50
2018,04,25,01,15,10.50
2018,04,25,01,16,10.50
2018,04,25,01,17,10.50
2018,04,25,01,18,10.50
2018,04,25,01,19,10.40
2018,04,25,01,20,10.40
2018,04,25,01,21,10.40
2018,04,25,01,22,10.40
2018,04,25,01,23,10.40
2018,04,25,01,24,10.40
2018,04,25,01,25,10.40
2018,04,25,01,26,10.30
2018,04,25,01,27,10.30
2018,04,25,01,28,10.30
2018,04,25,01,29,10.30
2018,04,25,01,30,10.20
2018,04,25,01,31,10.20
2018,04,25,01,32,10.20
2018,04,25,01,33,10.20
2018,04,25,01,34,10.20
2018,04,25,01,35,10.20
2018,04,25,01,36,10.10
2018,04,25,01,37,10.10
2018,04,25,01,38,10.10
2018,04,25,01,39,10.10
2018,04,25,01,40,10.10
2018,04,25,01,41,10.10
2018,04,25,01,42,10.10
2018,04,25,01,43,10.10
2018,04,25,01,44,10.20
2018,04,25,01,45,10.20
2018,04,25,01,46,10.20
2018,04,25,01,47,10.20
2018,04,25,01,48,10.20
2018,04,25,01,49,10.20
2018,04,25,01,50,10.20
2018,04,25,01,51,10.20
2018,04,25,01,52,10.20
2018,04,25,01,53,10.20
2018,04,25,01,54,10.20
2018,04,25,01,55,10.20
2018,04,25,01,56,10.20
2018,04,25,01,57,10.20
2018,04,25,01,58,10.20
2018,04,25,01,59,10.10
2018,04,25,02,00,10.10
2018,04,25,02,01,10.10
2018,04,25,02,02,10.10
2018,04,25,02,03,10.10
2018,04,25,02,04,10.00
2018,04,25,02,05,10.00
2018,04,25,02,06,9.90
2018,04,25,02,07,9.90
2018,04,25,02,08,9.90
2018,04,25,02,09,9.90
2018,04,25,02,10,9.80
2018,04,25,02,11,9.80
2018,04,25,02,12,9.80
2018,04,25,02,13,9.80
2018,04,25,02,14,9.70
2018,04,25,02,15,9.70
2018,04,25,02,16,9.70
2018,04,25,02,17,9.70
2018,04,25,02,18,9.70
2018,04,25,02,19,9.60
2018,04,25,02,20,9.60
2018,04,25,02,21,9.60
2018,04,25,02,22,9.60
2018,04,25,02,23,9.60
2018,04,25,02,24,9.60
2018,04,25,02,25,9.50
2018,04,25,02,26,9.50
2018,04,25,02,27,9.50
2018,04,25,02,28,9.40
2018,04,25,02,29,9.40
2018,04,25,02,30,9.40
2018,04,25,02,31,9.40
2018,04,25,02,32,9.40
2018,04,25,02,33,9.40
2018,04,25,02,34,9.40
2018,04,25,02,35,9.40
2018,04,25,02,36,9.40
2018,04,25,02,37,9.30
2018,04,25,02,38,9.30
2018,04,25,02,39,9.30
2018,04,25,02,40,9.30
2018,04,25,02,41,9.30
2018,04,25,02,42,9.30
2018,04,25,02,43,9.30
2018,04,25,02,44,9.30
2018,04,25,02,45,9.30
2018,04,25,02,46,9.30
2018,04,25,02,47,9.20
2018,04,25,02,48,9.20
2018,04,25,02,49,9.20
2018,04,25,02,50,9.20
2018,04,25,02,51,9.20
2018,04,25,02,52,9.20
2018,04,25,02,53,9.20
2018,04,25,02,54,9.10
2018,04,25,02,55,9.10
2018,04,25,02,56,9.10
2018,04,25,02,57,9.10
2018,04,25,02,58,9.10
2018,04,25,02,59,9.10
2018,04,25,03,00,9.10
2018,04,25,03,01,9.10
2018,04,25,03,02,9.10
2018,04,25,03,03,9.10
2018,04,25,03,04,9.00
2018,04,25,03,05,9.00
2018,04,25,03,06,9.00
2018,04,25,03,07,9.00
2018,04,25,03,08,8.90
2018,04,25,03,09,8.90
2018,04,25,03,10,8.90
2018,04,25,03,11,8.90
2018,04,25,03,12,8.80
2018,04,25,03,13,8.80
2018,04,25,03,14,8.80
2018,04,25,03,15,8.80
2018,04,25,03,16,8.80
2018,04,25,03,17,8.70
2018,04,25,03,18,8.70
2018,04,25,03,19,8.70
2018,04,25,03,20,8.70
2018,04,25,03,21,8.60
2018,04,25,03,22,8.60
2018,04,25,03,23,8.60
2018,04,25,03,24,8.60
2018,04,25,03,25,8.60
2018,04,25,03,26,8.50
2018,04,25,03,27,8.50
2018,04,25,03,28,8.50
2018,04,25,03,29,8.40
2018,04,25,03,30,8.40
2018,04,25,03,31,8.40
2018,04,25,03,32,8.40
2018,04,25,03,33,8.30
2018,04,25,03,34,8.30
2018,04,25,03,35,8.30
2018,04,25,03,36,8.30
2018,04,25,03,37,8.30
2018,04,25,03,38,8.20
2018,04,25,03,39,8.20
2018,04,25,03,40,8.20
2018,04,25,03,41,8.20
2018,04,25,03,42,8.20
2018,04,25,03,43,8.20
2018,04,25,03,44,8.20
2018,04,25,03,45,8.10
2018,04,25,03,46,8.10
2018,04,25,03,47,8.10
2018,04,25,03,48,8.10
2018,04,25,03,49,8.10
2018,04,25,03,50,8.00
2018,04,25,03,51,8.00
2018,04,25,03,52,8.00
2018,04,25,03,53,7.90
2018,04,25,03,54,7.90
2018,04,25,03,55,7.90
2018,04,25,03,56,7.90
2018,04,25,03,57,7.90
2018,04,25,03,58,7.90
2018,04,25,03,59,7.80
2018,04,25,04,00,7.80
2018,04,25,04,01,7.80
2018,04,25,04,02,7.80
2018,04,25,04,03,7.80
2018,04,25,04,04,7.80
2018,04,25,04,05,7.80
2018,04,25,04,06,7.80
2018,04,25,04,07,7.80
2018,04,25,04,08,7.80
2018,04,25,04,09,7.80
2018,04,25,04,10,7.80
2018,04,25,04,11,7.80
2018,04,25,04,12,7.80
2018,04,25,04,13,7.80
2018,04,25,04,14,7.80
2018,04,25,04,15,7.70
2018,04,25,04,16,7.70
2018,04,25,04,17,7.70
2018,04,25,04,18,7.70
2018,04,25,04,19,7.70
2018,04,25,04,20,7.70
2018,04,25,04,21,7.70
2018,04,25,04,22,7.70
2018,04,25,04,23,7.70
2018,04,25,04,24,7.60
2018,04,25,04,25,7.60
2018,04,25,04,26,7.60
2018,04,25,04,27,7.60
2018,04,25,04,28,7.60
2018,04,25,04,29,7.60
2018,04,25,04,30,7.60
2018,04,25,04,31,7.60
2018,04,25,04,32,7.50
2018,04,25,04,33,7.50
2018,04,25,04,34,7.50
2018,04,25,04,35,7.50
2018,04,25,04,36,7.50
2018,04,25,04,37,7.40
2018,04,25,04,38,7.40
2018,04,25,04,39,7.40
2018,04,25,04,40,7.40
2018,04,25,04,41,7.40
2018,04,25,04,42,7.40
2018,04,25,04,43,7.40
2018,04,25,04,44,7.30
2018,04,25,04,45,7.30
2018,04,25,04,46,7.30
2018,04,25,04,47,7.30
2018,04,25,04,48,7.30
2018,04,25,04,49,7.20
2018,04,25,04,50,7.20
2018,04,25,04,51,7.20
2018,04,25,04,52,7.20
2018,04,25,04,53,7.20
2018,04,25,04,54,7.10
2018,04,25,04,55,7.10
2018,04,25,04,56,7.10
2018,04,25,04,57,7.10
2018,04,25,04,58,7.10
2018,04,25,04,59,7.10
2018,04,25,05,00,7.20
2018,04,25,05,01,7.20
2018,04,25,05,02,7.20
2018,04,25,05,03,7.20
2018,04,25,05,04,7.20
2018,04,25,05,05,7.20
2018,04,25,05,06,7.20
2018,04,25,05,07,7.20
2018,04,25,05,08,7.30
2018,04,25,05,09,7.30
2018,04,25,05,10,7.30
2018,04,25,05,11,7.30
2018,04,25,05,12,7.30
2018,04,25,05,13,7.30
2018,04,25,05,14,7.40
2018,04,25,05,15,7.40
2018,04,25,05,16,7.40
2018,04,25,05,17,7.40
2018,04,25,05,18,7.40
2018,04,25,05,19,7.40
2018,04,25,05,20,7.40
2018,04,25,05,21,7.40
2018,04,25,05,22,7.40
2018,04,25,05,23,7.40
2018,04,25,05,24,7.40
2018,04,25,05,25,7.40
2018,04,25,05,26,7.40
2018,04,25,05,27,7.40
2018,04,25,05,28,7.40
2018,04,25,05,29,7.30
2018,04,25,05,30,7.30
2018,04,25,05,31,7.30
2018,04,25,05,32,7.30
2018,04,25,05,33,7.30
2018,04,25,05,34,7.30
2018,04,25,05,35,7.30
2018,04,25,05,36,7.30
2018,04,25,05,37,7.30
2018,04,25,05,38,7.30
2018,04,25,05,39,7.30
2018,04,25,05,40,7.30
2018,04,25,05,41,7.30
2018,04,25,05,42,7.30
2018,04,25,05,43,7.30
2018,04,25,05,44,7.30
2018,04,25,05,45,7.30
2018,04,25,05,46,7.30
2018,04,25,05,47,7.30
2018,04,25,05,48,7.30
2018,04,25,05,49,7.20
2018,04,25,05,50,7.20
2018,04,25,05,51,7.20
2018,04,25,05,52,7.20
2018,04,25,05,53,7.30
2018,04,25,05,54,7.30
2018,04,25,05,55,7.30
2018,04,25,05,56,7.30
2018,04,25,05,57,7.40
2018,04,25,05,58,7.40
2018,04,25,05,59,7.40
2018,04,25,06,00,7.40
2018,04,25,06,01,7.50
2018,04,25,06,02,7.50
2018,04,25,06,03,7.50
2018,04,25,06,04,7.50
2018,04,25,06,05,7.50
2018,04,25,06,06,7.40
2018,04,25,06,07,7.40
2018,04,25,06,08,7.40
2018,04,25,06,09,7.40
2018,04,25,06,10,7.40
2018,04,25,06,11,7.40
2018,04,25,06,12,7.30
2018,04,25,06,13,7.30
2018,04,25,06,14,7.30
2018,04,25,06,15,7.30
2018,04,25,06,16,7.30
2018,04,25,06,17,7.20
2018,04,25,06,18,7.20
2018,04,25,06,19,7.20
2018,04,25,06,20,7.20
2018,04,25,06,21,7.20
2018,04,25,06,22,7.20
2018,04,25,06,23,7.10
2018,04,25,06,24,7.10
2018,04,25,06,25,7.10
2018,04,25,06,26,7.10
2018,04,25,06,27,7.10
2018,04,25,06,28,7.10
2018,04,25,06,29,7.10
2018,04,25,06,30,7.10
2018,04,25,06,31,7.00
2018,04,25,06,32,7.00
2018,04,25,06,33,7.00
2018,04,25,06,34,7.00
2018,04,25,06,35,7.00
2018,04,25,06,36,6.90
2018,04,25,06,37,6.90
2018,04,25,06,38,6.90
2018,04,25,06,39,6.90
2018,04,25,06,40,7.00
2018,04,25,06,41,7.00
2018,04,25,06,42,7.00
2018,04,25,06,43,7.00
2018,04,25,06,44,7.00
2018,04,25,06,45,7.00
2018,04,25,06,46,7.00
2018,04,25,06,47,7.00
2018,04,25,06,48,7.00
2018,04,25,06,49,7.10
2018,04,25,06,50,7.10
2018,04,25,06,51,7.10
2018,04,25,06,52,7.10
2018,04,25,06,53,7.20
2018,04,25,06,54,7.20
2018,04,25,06,55,7.20
2018,04,25,06,56,7.30
2018,04,25,06,57,7.30
2018,04,25,06,58,7.40
2018,04,25,06,59,7.40
2018,04,25,07,00,7.50
2018,04,25,07,01,7.60
2018,04,25,07,02,7.70
2018,04,25,07,03,7.80
2018,04,25,07,04,7.90
2018,04,25,07,05,8.00
2018,04,25,07,06,8.10
2018,04,25,07,07,8.10
2018,04,25,07,08,8.10
2018,04,25,07,09,8.10
2018,04,25,07,10,8.60
2018,04,25,07,11,8.70
2018,04,25,07,12,8.80
2018,04,25,07,13,8.90
2018,04,25,07,14,9.00
2018,04,25,07,15,9.10
2018,04,25,07,16,9.20
2018,04,25,07,17,9.20
2018,04,25,07,18,9.30
2018,04,25,07,19,9.30
2018,04,25,07,20,9.40
2018,04,25,07,21,9.50
2018,04,25,07,22,9.50
2018,04,25,07,23,9.60
2018,04,25,07,24,9.70
2018,04,25,07,25,9.80
2018,04,25,07,26,9.90
2018,04,25,07,27,10.00
2018,04,25,07,28,10.10
2018,04,25,07,29,10.10
2018,04,25,07,30,10.20
2018,04,25,07,31,10.30
2018,04,25,07,32,10.30
2018,04,25,07,33,10.30
2018,04,25,07,34,10.40
2018,04,25,07,35,10.40
2018,04,25,07,36,10.50
2018,04,25,07,37,10.50
2018,04,25,07,38,10.60
2018,04,25,07,39,10.70
2018,04,25,07,40,10.80
2018,04,25,07,41,10.90
2018,04,25,07,42,11.00
2018,04,25,07,43,11.10
2018,04,25,07,44,11.20
2018,04,25,07,45,11.30
2018,04,25,07,46,11.40
2018,04,25,07,47,11.50
2018,04,25,07,48,11.60
2018,04,25,07,49,11.60
2018,04,25,07,50,11.70
2018,04,25,07,51,11.80
2018,04,25,07,52,11.90
2018,04,25,07,53,12.00
2018,04,25,07,54,12.10
2018,04,25,07,55,12.20
2018,04,25,07,56,12.20
2018,04,25,07,57,12.30
2018,04,25,07,58,12.40
2018,04,25,07,59,12.40
2018,04,25,08,00,12.50
2018,04,25,08,01,12.60
2018,04,25,08,02,12.70
2018,04,25,08,03,12.70
2018,04,25,08,04,12.80
2018,04,25,08,05,12.80
2018,04,25,08,06,12.90
2018,04,25,08,07,13.00
2018,04,25,08,08,13.00
2018,04,25,08,09,13.10
2018,04,25,08,10,13.20
2018,04,25,08,11,13.20
2018,04,25,08,12,13.30
2018,04,25,08,13,13.30
2018,04,25,08,14,13.40
2018,04,25,08,15,13.50
2018,04,25,08,16,13.50
2018,04,25,08,17,13.60
2018,04,25,08,18,13.60
2018,04,25,08,19,13.70
2018,04,25,08,20,13.80
2018,04,25,08,21,13.80
2018,04,25,08,22,13.90
2018,04,25,08,23,14.00
2018,04,25,08,24,14.00
2018,04,25,08,25,14.10
2018,04,25,08,26,14.10
2018,04,25,08,27,14.20
2018,04,25,08,28,14.20
2018,04,25,08,29,14.20
2018,04,25,08,30,14.30
2018,04,25,08,31,14.30
2018,04,25,08,32,14.30
2018,04,25,08,33,14.40
2018,04,25,08,34,14.40
2018,04,25,08,35,14.50
2018,04,25,08,36,14.50
2018,04,25,08,37,14.60
2018,04,25,08,38,14.60
2018,04,25,08,39,14.70
2018,04,25,08,40,14.70
2018,04,25,08,41,14.70
2018,04,25,08,42,14.80
2018,04,25,08,43,14.80
2018,04,25,08,44,14.80
2018,04,25,08,45,14.90
2018,04,25,08,46,14.90
2018,04,25,08,47,14.90
2018,04,25,08,48,15.00
2018,04,25,08,49,15.00
2018,04,25,08,50,15.10
2018,04,25,08,51,15.10
2018,04,25,08,52,15.10
2018,04,25,08,53,15.20
2018,04,25,08,54,15.20
2018,04,25,08,55,15.20
2018,04,25,08,56,15.30
2018,04,25,08,57,15.30
2018,04,25,08,58,15.30
2018,04,25,08,59,15.30
2018,04,25,09,00,15.40
2018,04,25,09,01,15.40
2018,04,25,09,02,15.50
2018,04,25,09,03,15.50
2018,04,25,09,04,15.50
2018,04,25,09,05,15.60
2018,04,25,09,06,15.60
2018,04,25,09,07,15.60
2018,04,25,09,08,15.70
2018,04,25,09,09,15.70
2018,04,25,09,10,15.70
2018,04,25,09,11,15.80
2018,04,25,09,12,15.80
2018,04,25,09,13,15.80
2018,04,25,09,14,15.90
2018,04,25,09,15,15.90
2018,04,25,09,16,16.00
2018,04,25,09,17,16.00
2018,04,25,09,18,16.10
2018,04,25,09,19,16.10
2018,04,25,09,20,16.10
2018,04,25,09,21,16.20
2018,04,25,09,22,16.20
2018,04,25,09,23,16.20
2018,04,25,09,24,16.20
2018,04,25,09,25,16.20
2018,04,25,09,26,16.20
2018,04,25,09,27,16.20
2018,04,25,09,28,16.20
2018,04,25,09,29,16.20
2018,04,25,09,30,16.20
2018,04,25,09,31,16.20
2018,04,25,09,32,16.20
2018,04,25,09,33,16.20
2018,04,25,09,34,16.20
2018,04,25,09,35,16.20
2018,04,25,09,36,16.30
2018,04,25,09,37,16.30
2018,04,25,09,38,16.30
2018,04,25,09,39,16.40
2018,04,25,09,40,16.40
2018,04,25,09,41,16.40
2018,04,25,09,42,16.40
2018,04,25,09,43,16.50
2018,04,25,09,44,16.50
2018,04,25,09,45,16.50
2018,04,25,09,46,16.50
2018,04,25,09,47,16.50
2018,04,25,09,48,16.60
2018,04,25,09,49,16.60
2018,04,25,09,50,16.60
2018,04,25,09,51,16.70
2018,04,25,09,52,16.70
2018,04,25,09,53,16.70
2018,04,25,09,54,16.70
2018,04,25,09,55,16.80
2018,04,25,09,56,16.80
2018,04,25,09,57,16.80
2018,04,25,09,58,16.80
2018,04,25,09,59,16.90
2018,04,25,10,00,16.90
2018,04,25,10,01,16.90
2018,04,25,10,02,16.90
2018,04,25,10,03,17.00
2018,04,25,10,04,17.00
2018,04,25,10,05,17.00
2018,04,25,10,06,17.00
2018,04,25,10,07,17.10
2018,04,25,10,08,17.10
2018,04,25,10,09,17.10
2018,04,25,10,10,17.10
2018,04,25,10,11,17.20
2018,04,25,10,12,17.20
2018,04,25,10,13,17.20
2018,04,25,10,14,17.20
2018,04,25,10,15,17.20
2018,04,25,10,16,17.20
2018,04,25,10,17,17.20
2018,04,25,10,18,17.20
2018,04,25,10,19,17.30
2018,04,25,10,20,17.20
2018,04,25,10,21,17.30
2018,04,25,10,22,17.30
2018,04,25,10,23,17.20
2018,04,25,10,24,17.20
2018,04,25,10,25,17.20
2018,04,25,10,26,17.20
2018,04,25,10,27,17.20
2018,04,25,10,28,17.20
2018,04,25,10,29,17.20
2018,04,25,10,30,17.30
2018,04,25,10,31,17.30
2018,04,25,10,32,17.30
2018,04,25,10,33,17.30
2018,04,25,10,34,17.30
2018,04,25,10,35,17.30
2018,04,25,10,36,17.30
2018,04,25,10,37,17.30
2018,04,25,10,38,17.30
2018,04,25,10,39,17.30
2018,04,25,10,40,17.30
2018,04,25,10,41,17.40
2018,04,25,10,42,17.40
2018,04,25,10,43,17.50
2018,04,25,10,44,17.60
2018,04,25,10,45,17.70
2018,04,25,10,46,17.70
2018,04,25,10,47,17.80
2018,04,25,10,48,17.80
2018,04,25,10,49,17.90
2018,04,25,10,50,17.90
2018,04,25,10,51,17.90
2018,04,25,10,52,17.90
2018,04,25,10,53,17.90
2018,04,25,10,54,17.90
2018,04,25,10,55,17.90
2018,04,25,10,56,18.00
2018,04,25,10,57,18.10
2018,04,25,10,58,18.10
2018,04,25,10,59,18.20
2018,04,25,11,00,18.20
2018,04,25,11,01,18.30
2018,04,25,11,02,18.30
2018,04,25,11,03,18.30
2018,04,25,11,04,18.40
2018,04,25,11,05,18.40
2018,04,25,11,06,18.40
2018,04,25,11,07,18.40
2018,04,25,11,08,18.40
2018,04,25,11,09,18.40
2018,04,25,11,10,18.50
2018,04,25,11,11,18.50
2018,04,25,11,12,18.50
2018,04,25,11,13,18.50
2018,04,25,11,14,18.50
2018,04,25,11,15,18.50
2018,04,25,11,16,18.50
2018,04,25,11,17,18.40
2018,04,25,11,18,18.40
2018,04,25,11,19,18.40
2018,04,25,11,20,18.30
2018,04,25,11,21,18.40
2018,04,25,11,22,18.40
2018,04,25,11,23,18.40
2018,04,25,11,24,18.40
2018,04,25,11,25,18.50
2018,04,25,11,26,18.60
2018,04,25,11,27,18.60
2018,04,25,11,28,18.70
2018,04,25,11,29,18.70
2018,04,25,11,30,18.70
2018,04,25,11,31,18.80
2018,04,25,11,32,18.80
2018,04,25,11,33,18.80
2018,04,25,11,34,18.80
2018,04,25,11,35,18.80
2018,04,25,11,36,18.80
2018,04,25,11,37,18.80
2018,04,25,11,38,18.90
2018,04,25,11,39,18.90
2018,04,25,11,40,19.00
2018,04,25,11,41,19.00
2018,04,25,11,42,19.00
2018,04,25,11,43,19.10
2018,04,25,11,44,19.10
2018,04,25,11,45,19.10
2018,04,25,11,46,19.20
2018,04,25,11,47,19.20
2018,04,25,11,48,19.30
2018,04,25,11,49,19.30
2018,04,25,11,50,19.40
2018,04,25,11,51,19.40
2018,04,25,11,52,19.40
2018,04,25,11,53,19.40
2018,04,25,11,54,19.50
2018,04,25,11,55,19.50
2018,04,25,11,56,19.50
2018,04,25,11,57,19.60
2018,04,25,11,58,19.60
2018,04,25,11,59,19.70
2018,04,25,12,00,19.70
2018,04,25,12,01,19.70
2018,04,25,12,02,19.70
2018,04,25,12,03,19.80
2018,04,25,12,04,19.80
2018,04,25,12,05,19.80
2018,04,25,12,06,19.80
2018,04,25,12,07,19.90
2018,04,25,12,08,19.90
2018,04,25,12,09,19.90
2018,04,25,12,10,19.90
2018,04,25,12,11,19.90
2018,04,25,12,12,19.90
2018,04,25,12,13,19.90
2018,04,25,12,14,19.80
2018,04,25,12,15,19.80
2018,04,25,12,16,19.70
2018,04,25,12,17,19.70
2018,04,25,12,18,19.60
2018,04,25,12,19,19.50
2018,04,25,12,20,19.50
2018,04,25,12,21,19.40
2018,04,25,12,22,19.40
2018,04,25,12,23,19.40
2018,04,25,12,24,19.40
2018,04,25,12,25,19.30
2018,04,25,12,26,19.30
2018,04,25,12,27,19.30
2018,04,25,12,28,19.30
2018,04,25,12,29,19.40
2018,04,25,12,30,19.50
2018,04,25,12,31,19.50
2018,04,25,12,32,19.60
2018,04,25,12,33,19.60
2018,04,25,12,34,19.60
2018,04,25,12,35,19.60
2018,04,25,12,36,19.60
2018,04,25,12,37,19.50
2018,04,25,12,38,19.50
2018,04,25,12,39,19.50
2018,04,25,12,40,19.50
2018,04,25,12,41,19.50
2018,04,25,12,42,19.50
2018,04,25,12,43,19.60
2018,04,25,12,44,19.60
2018,04,25,12,45,19.50
2018,04,25,12,46,19.50
2018,04,25,12,47,19.50
2018,04,25,12,48,19.50
2018,04,25,12,49,19.50
2018,04,25,12,50,19.60
2018,04,25,12,51,19.60
2018,04,25,12,52,19.60
2018,04,25,12,53,19.60
2018,04,25,12,54,19.60
2018,04,25,12,55,19.60
2018,04,25,12,56,19.60
2018,04,25,12,57,19.60
2018,04,25,12,58,19.60
2018,04,25,12,59,19.70
2018,04,25,13,00,19.70
2018,04,25,13,01,19.80
2018,04,25,13,02,19.80
2018,04,25,13,03,19.90
2018,04,25,13,04,19.90
2018,04,25,13,05,20.00
2018,04,25,13,06,20.10
2018,04,25,13,07,20.10
2018,04,25,13,08,20.10
2018,04,25,13,09,20.20
2018,04,25,13,10,20.20
2018,04,25,13,11,20.20
2018,04,25,13,12,20.30
2018,04,25,13,13,20.30
2018,04,25,13,14,20.40
2018,04,25,13,15,20.50
2018,04,25,13,16,20.60
2018,04,25,13,17,20.60
2018,04,25,13,18,20.70
2018,04,25,13,19,20.70
2018,04,25,13,20,20.80
2018,04,25,13,21,20.80
2018,04,25,13,22,20.90
2018,04,25,13,23,20.90
2018,04,25,13,24,20.90
2018,04,25,13,25,20.90
2018,04,25,13,26,21.00
2018,04,25,13,27,21.00
2018,04,25,13,28,21.00
2018,04,25,13,29,21.10
2018,04,25,13,30,21.10
2018,04,25,13,31,21.20
2018,04,25,13,32,21.20
2018,04,25,13,33,21.20
2018,04,25,13,34,21.20
2018,04,25,13,35,21.20
2018,04,25,13,36,21.20
2018,04,25,13,37,21.20
2018,04,25,13,38,21.20
2018,04,25,13,39,21.20
2018,04,25,13,40,21.20
2018,04,25,13,41,21.20
2018,04,25,13,42,21.20
2018,04,25,13,43,21.20
2018,04,25,13,44,21.20
2018,04,25,13,45,21.20
2018,04,25,13,46,21.10
2018,04,25,13,47,21.10
2018,04,25,13,48,21.10
2018,04,25,13,49,21.10
2018,04,25,13,50,21.20
2018,04,25,13,51,21.20
2018,04,25,13,52,21.20
2018,04,25,13,53,21.30
2018,04,25,13,54,21.30
2018,04,25,13,55,21.30
2018,04,25,13,56,21.30
2018,04,25,13,57,21.30
2018,04,25,13,58,21.40
2018,04,25,13,59,21.40
2018,04,25,14,00,21.40
2018,04,25,14,01,21.40
2018,04,25,14,02,21.40
2018,04,25,14,03,21.50
2018,04,25,14,04,21.50
2018,04,25,14,05,21.60
2018,04,25,14,06,21.60
2018,04,25,14,07,21.70
2018,04,25,14,08,21.70
2018,04,25,14,09,21.70
2018,04,25,14,10,21.70
2018,04,25,14,11,21.70
2018,04,25,14,12,21.80
2018,04,25,14,13,21.80
2018,04,25,14,14,21.90
2018,04,25,14,15,22.00
2018,04,25,14,16,22.10
2018,04,25,14,17,22.20
2018,04,25,14,18,22.20
2018,04,25,14,19,22.30
2018,04,25,14,20,22.30
2018,04,25,14,21,22.30
2018,04,25,14,22,22.30
2018,04,25,14,23,22.40
2018,04,25,14,24,22.40
2018,04,25,14,25,22.40
2018,04,25,14,26,22.40
2018,04,25,14,27,22.40
2018,04,25,14,28,22.40
2018,04,25,14,29,22.30
2018,04,25,14,30,22.30
2018,04,25,14,31,22.30
2018,04,25,14,32,22.30
2018,04,25,14,33,22.30
2018,04,25,14,34,22.30
2018,04,25,14,35,22.40
2018,04,25,14,36,22.40
2018,04,25,14,37,22.40
2018,04,25,14,38,22.40
2018,04,25,14,39,22.50
2018,04,25,14,40,22.50
2018,04,25,14,41,22.60
2018,04,25,14,42,22.60
2018,04,25,14,43,22.60
2018,04,25,14,44,22.50
2018,04,25,14,45,22.50
2018,04,25,14,46,22.50
2018,04,25,14,47,22.50
2018,04,25,14,48,22.60
2018,04,25,14,49,22.60
2018,04,25,14,50,22.60
2018,04,25,14,51,22.60
2018,04,25,14,52,22.60
2018,04,25,14,53,22.60
2018,04,25,14,54,22.60
2018,04,25,14,55,22.60
2018,04,25,14,56,22.60
2018,04,25,14,57,22.60
2018,04,25,14,58,22.60
2018,04,25,14,59,22.60
2018,04,25,15,00,22.70
2018,04,25,15,01,22.70
2018,04,25,15,02,22.70
2018,04,25,15,03,22.80
2018,04,25,15,04,22.80
2018,04,25,15,05,22.90
2018,04,25,15,06,23.00
2018,04,25,15,07,23.00
2018,04,25,15,08,23.10
2018,04,25,15,09,23.20
2018,04,25,15,10,23.30
2018,04,25,15,11,23.30
2018,04,25,15,12,23.40
2018,04,25,15,13,23.40
2018,04,25,15,14,23.40
2018,04,25,15,15,23.50
2018,04,25,15,16,23.50
2018,04,25,15,17,23.50
2018,04,25,15,18,23.50
2018,04,25,15,19,23.40
2018,04,25,15,20,23.40
2018,04,25,15,21,23.50
2018,04,25,15,22,23.50
2018,04,25,15,23,23.50
2018,04,25,15,24,23.50
2018,04,25,15,25,23.50
2018,04,25,15,26,23.50
2018,04,25,15,27,23.50
2018,04,25,15,28,23.60
2018,04,25,15,29,23.60
2018,04,25,15,30,23.60
2018,04,25,15,31,23.70
2018,04,25,15,32,23.70
2018,04,25,15,33,23.80
2018,04,25,15,34,23.80
2018,04,25,15,35,23.80
2018,04,25,15,36,23.90
2018,04,25,15,37,23.90
2018,04,25,15,38,23.90
2018,04,25,15,39,23.90
2018,04,25,15,40,24.00
2018,04,25,15,41,24.00
2018,04,25,15,42,24.00
2018,04,25,15,43,24.00
2018,04,25,15,44,24.10
2018,04,25,15,45,24.10
2018,04,25,15,46,24.10
2018,04,25,15,47,24.20
2018,04,25,15,48,24.10
2018,04,25,15,49,24.10
2018,04,25,15,50,24.10
2018,04,25,15,51,24.10
2018,04,25,15,52,24.10
2018,04,25,15,53,24.10
2018,04,25,15,54,24.10
2018,04,25,15,55,24.10
2018,04,25,15,56,24.10
2018,04,25,15,57,24.00
2018,04,25,15,58,24.00
2018,04,25,15,59,24.00
2018,04,25,16,00,24.00
2018,04,25,16,01,24.10
2018,04,25,16,02,24.10
2018,04,25,16,03,24.10
2018,04,25,16,04,24.10
2018,04,25,16,05,24.10
2018,04,25,16,06,24.10
2018,04,25,16,07,24.10
2018,04,25,16,08,24.10
2018,04,25,16,09,24.10
2018,04,25,16,10,24.00
2018,04,25,16,11,24.10
2018,04,25,16,12,24.10
2018,04,25,16,13,24.20
2018,04,25,16,14,24.20
2018,04,25,16,15,24.30
2018,04,25,16,16,24.30
2018,04,25,16,17,24.30
2018,04,25,16,18,24.40
2018,04,25,16,19,24.40
2018,04,25,16,20,24.40
2018,04,25,16,21,24.50
2018,04,25,16,22,24.40
2018,04,25,16,23,24.30
2018,04,25,16,24,24.20
2018,04,25,16,25,24.00
2018,04,25,16,26,23.80
2018,04,25,16,27,23.70
2018,04,25,16,28,23.50
2018,04,25,16,29,23.30
2018,04,25,16,30,23.20
2018,04,25,16,31,23.00
2018,04,25,16,32,22.80
2018,04,25,16,33,22.60
2018,04,25,16,34,22.40
2018,04,25,16,35,22.30
2018,04,25,16,36,22.10
2018,04,25,16,37,22.00
2018,04,25,16,38,21.90
2018,04,25,16,39,21.80
2018,04,25,16,40,21.70
2018,04,25,16,41,21.60
2018,04,25,16,42,21.50
2018,04,25,16,43,21.40
2018,04,25,16,44,21.20
2018,04,25,16,45,21.10
2018,04,25,16,46,20.90
2018,04,25,16,47,20.80
2018,04,25,16,48,20.70
2018,04,25,16,49,20.60
2018,04,25,16,50,20.60
2018,04,25,16,51,20.50
2018,04,25,16,52,20.50
2018,04,25,16,53,20.50
2018,04,25,16,54,20.50
2018,04,25,16,55,20.60
2018,04,25,16,56,20.60
2018,04,25,16,57,20.60
2018,04,25,16,58,20.70
2018,04,25,16,59,20.70
2018,04,25,17,00,20.70
2018,04,25,17,01,20.60
2018,04,25,17,02,20.60
2018,04,25,17,03,20.60
2018,04,25,17,04,20.60
2018,04,25,17,05,20.60
2018,04,25,17,06,20.60
2018,04,25,17,07,20.60
2018,04,25,17,08,20.50
2018,04,25,17,09,20.40
2018,04,25,17,10,20.30
2018,04,25,17,11,20.30
2018,04,25,17,12,20.10
2018,04,25,17,13,19.90
2018,04,25,17,14,19.80
2018,04,25,17,15,19.70
2018,04,25,17,16,19.50
2018,04,25,17,17,19.30
2018,04,25,17,18,19.20
2018,04,25,17,19,19.00
2018,04,25,17,20,19.00
2018,04,25,17,21,18.80
2018,04,25,17,22,18.70
2018,04,25,17,23,18.60
2018,04,25,17,24,18.50
2018,04,25,17,25,18.40
2018,04,25,17,26,18.40
2018,04,25,17,27,18.30
2018,04,25,17,28,18.30
2018,04,25,17,29,18.30
2018,04,25,17,30,18.20
2018,04,25,17,31,18.20
2018,04,25,17,32,18.30
2018,04,25,17,33,18.30